Back to catalog

CZ-6A DEB

AlivePO
NORAD 60682·DEBRIS·🇨🇳 China

Launched Aug 6, 2024 from Taiyuan Satellite Launch Center

Loading…

Next Passes (next 24 hours)

TLE

FreshSource: Space-Track

Epoch: Sep 14, 2026, 11:00 UTC

1 60682U 24140CK  26257.45876933  .00000343  00000-0  14066-3 0  9990
2 60682  89.0006 264.3980 0025543 261.4331  98.3967 14.24783883109075

Track CZ-6A DEB in real time with AllMySat

Download on the App Store